カタログに戻る

DELTA 1 DEB

運用中LEO
NORAD 10750·DEBRIS·🇺🇸 United States

打ち上げ Jul 29, 1976 から Vandenberg Space Force Base

Loading…

次のパス (今後24時間)

TLE

最新Source: Space-Track

元期: Sep 13, 2026, 08:41 UTC

1 10750U 76077AX  26256.36195856  .00004382  00000-0  25733-2 0  9993
2 10750 101.6450 237.9302 0373483 280.4390  75.4876 13.79155475377801

AllMySatでDELTA 1 DEBをリアルタイム追跡

Download on the App Store